Location: Bern/Schweiz
(46.9381°N, 7.4364°E)
Time: 22:51:54
(UTC+01:00)

ISS - Pass Details

Date: 23 September 2020
Orbit: 417 x 420 km, 51.6° (Epoch: 27 October)

Event Time Altitude Azimuth Distance (km) Brightness Sun altitude
Rises 19:22:01 0° 233° (SW) 2,356 1.0 -0.3°
Reaches altitude 10° 19:24:07 10° 230° (SW) 1,496 -0.1 -0.6°
Maximum altitude 19:27:26 62° 149° (SSE) 476 -3.6 -1.2°
Drops below altitude 10° 19:30:47 10° 68° (ENE) 1,505 -1.5 -1.8°
Enters shadow 19:32:48 - 66° (ENE) 2,337 -0.5 -2.1°
Exits shadow 20:07:10 -73° 69° (ENE) 12,654 3.6 -8.0°
